Location: Unspecified
(0.0000°N, 0.0000°E)
Time: 07:36:16
(UTC+00:00)

Tiros 1 - All Passes

Search period start: 20 May 2026 00:00
Search period end: 30 May 2026 00:00
Orbit: 618 x 649 km, 48.4° (Epoch: 19 May)

Date Brightness Start Highest point End Pass type
(mag) Time Alt. Az. Time Alt. Az. Time Alt. Az.
20 May - 06:09:45 10° NNW 06:14:07 48° NE 06:18:31 10° SE daylight
20 May - 07:53:57 10° WSW 07:55:52 12° SW 07:57:47 10° SSW daylight
20 May - 18:20:12 10° SW 18:24:56 88° SE 18:29:38 10° NE visible
21 May - 04:52:18 10° NNE 04:53:47 11° NE 04:55:18 10° ENE visible
21 May - 06:31:08 10° NW 06:35:31 51° SW 06:39:58 10° SSE daylight
21 May - 17:01:05 10° S 17:04:38 21° SE 17:08:09 10° E daylight
21 May - 18:42:13 10° WSW 18:46:21 30° NW 18:50:28 10° N visible
22 May - 05:11:11 10° NNW 05:15:17 34° NE 05:19:24 10° ESE visible
22 May - 06:53:58 10° W 06:56:59 17° SW 07:00:01 10° S daylight
22 May - 17:21:25 10° SSW 17:26:05 62° SE 17:30:43 10° NE daylight
22 May - 19:07:04 10° WNW 19:07:52 10° NW 19:08:39 10° NW visible
23 May - 05:32:11 10° NW 05:36:41 75° SW 05:41:15 10° SE visible
23 May - 16:03:01 10° SSE 16:05:44 15° SE 16:08:28 10° E daylight
23 May - 17:43:02 10° WSW 17:47:30 42° NW 17:51:57 10° NNE daylight
24 May - 04:12:46 10° N 04:16:26 24° NE 04:20:07 10° ESE visible
24 May - 05:54:28 10° WNW 05:58:08 24° SW 06:01:49 10° S daylight
24 May - 16:22:44 10° SSW 16:27:14 43° SE 16:31:42 10° ENE daylight
24 May - 18:06:19 10° W 18:08:57 15° NW 18:11:36 10° NNW daylight
25 May - 04:33:21 10° NW 04:37:52 76° NE 04:42:25 10° SE visible
25 May - 15:05:44 10° SE 15:06:51 11° SE 15:07:57 10° ESE daylight
25 May - 16:43:59 10° SW 16:48:38 60° NW 16:53:17 10° NNE daylight
26 May - 03:14:34 10° N 03:17:36 17° NE 03:20:36 10° E visible
26 May - 04:55:12 10° WNW 04:59:17 33° SW 05:03:24 10° SSE visible
26 May - 15:24:12 10° S 15:28:22 31° SE 15:32:31 10° ENE daylight
26 May - 17:06:35 10° W 17:10:05 20° NW 17:13:34 10° N daylight
27 May - 03:34:37 10° NNW 03:39:02 52° NE 03:43:27 10° SE visible
27 May - 05:19:21 10° WSW 05:20:47 11° SW 05:22:14 10° SSW visible
27 May - 15:45:03 10° SW 15:49:47 86° NW 15:54:30 10° NE daylight
28 May - 02:16:49 10° NNE 02:18:43 12° NE 02:20:38 10° ENE night (unlit)
28 May - 03:56:05 10° NW 04:00:27 47° SW 04:04:50 10° SSE visible
28 May - 14:25:49 10° S 14:29:29 22° SE 14:33:10 10° ENE daylight
28 May - 16:07:10 10° WSW 16:11:12 28° NW 16:15:15 10° N daylight
29 May - 02:36:01 10° NNW 02:40:12 36° NE 02:44:23 10° ESE night (unlit)
29 May - 04:19:07 10° W 04:21:54 16° SW 04:24:42 10° SSW visible
29 May - 14:46:14 10° SSW 14:50:55 67° SE 14:55:36 10° NE daylight
